sat.trackr.live / text

‹ back to catalog

STARLINK-35232

NORAD 65518 · 2025-198AC

PAYLOAD ACTIVE UNKNOWN

§ Identity

Operator
Country
US
Launch date
2025-09-05
Launch site
AFETR
Launch vehicle
Mass (kg)
RCS (m²)

Purposes: comms

External: N2YO · Heavens-Above · Gunter

§ Orbital elements

Epoch: 2026-05-24T21:16:52.432608Z

Period
93.85 min
Inclination
53.1599°
Eccentricity
0.0001192
Mean motion
15.34417392 rev/d
Perigee alt
461.8 km
Apogee alt
463.5 km
Semi-major
6,840.8 km
B*
6.5613e-4
RAAN
276.5326°
Arg perigee
86.6005°
Mean anomaly
273.5134°
Rev number
4,029

§ Raw data

STARLINK-352321 65518U 25198AC  26144.88671797  .00021869  00000+0  65613-3 0  99992 65518  53.1599 276.5326 0001192  86.6005 273.5134 15.34417392 40297

JSON: /api/v1/satellites/65518 · /tle

For live sub-satellite position, see the globe view (requires WebGL).

§ Visibility from observer

Set your observer location to see the next 7 days of passes ≥ 10°. The values pass through the URL so the page stays shareable.

No JS? Fill the form by hand. The geolocation button needs JavaScript.